GW3985 Weather Reports


time (UTC)temp
C
wind
direction
speed
KPH
gust
KPH
rain 1hr
cm
rain 24hr
cm
rain mn
cm
humidity
%
barometer
mb
20260903042016 20 0.0 0.0 0.00 0.00 0.00 57 1022.9
20260903041017 20 0.0 0.0 0.00 0.00 0.00 55 1023.1
20260903040015 20 7 0.0 1.6 0.00 0.00 0.00 54 1022.8
20260903035015 21 338 0.0 3.2 0.00 0.00 0.00 53 1022.7
20260903034016 21 27 0.0 3.2 0.00 0.00 0.00 51 1022.5
20260903033016 21 12 1.6 6.4 0.00 0.00 0.00 50 1022.7
20260903032016 22 358 0.0 3.2 0.00 0.00 0.00 47 1022.4
20260903031017 22 71 0.0 3.2 0.00 0.00 0.00 46 1022.4
20260903030017 22 35 0.0 3.2 0.00 0.00 0.00 44 1022.4
20260903025015 23 83 0.0 3.2 0.00 0.00 0.00 44 1022.7
20260903024016 23 208 0.0 3.2 0.00 0.00 0.00 43 1022.0
20260903023016 24 25 0.0 3.2 0.00 0.00 0.00 43 1021.4
20260903022016 25 41 3.2 11.3 0.00 0.00 0.00 42 1021.0
20260903021016 24 71 1.6 6.4 0.00 0.00 0.00 40 1020.9
20260903020037 24 239 1.6 6.4 0.00 0.00 0.00 44 1021.2
20260903015035 24 283 0.0 1.6 0.00 0.00 0.00 43 1020.3
20260903014035 25 255 0.0 1.6 0.00 0.00 0.00 41 1020.0
20260903013015 25 93 0.0 1.6 0.00 0.00 0.00 40 1020.1
20260903012036 26 93 0.0 1.6 0.00 0.00 0.00 39 1020.0
20260903011016 26 89 0.0 3.2 0.00 0.00 0.00 38 1020.1
20260903010017 26 95 0.0 3.2 0.00 0.00 0.00 38 1020.2
20260903005017 26 76 0.0 3.2 0.00 0.00 0.00 37 1020.2
20260903004015 27 91 1.6 3.2 0.00 0.00 0.00 36 1020.1
20260903003015 27 94 0.0 1.6 0.00 0.00 0.00 36 1020.1
20260903002015 27 90 0.0 3.2 0.00 0.00 0.00 35 1020.1
20260903000516 28 69 0.0 4.8 0.00 0.00 0.00 35 1020.1
20260902235517 28 89 1.6 4.8 0.00 0.00 0.00 34 1020.1
20260902234517 29 87 3.2 9.7 0.00 0.00 0.00 33 1020.1
20260902233515 30 90 3.2 6.4 0.00 0.00 0.00 32 1020.2
20260902232515 30 92 3.2 4.8 0.00 0.00 0.00 31 1020.2
20260902231515 30 98 1.6 6.4 0.00 0.00 0.00 32 1020.3
20260902230516 30 88 3.2 6.4 0.00 0.00 0.00 31 1020.4
20260902225516 30 103 1.6 4.8 0.00 0.00 0.00 30 1020.4
20260902224517 30 94 3.2 6.4 0.00 0.00 0.00 32 1020.6
20260902223517 30 93 3.2 6.4 0.00 0.00 0.00 31 1020.6
20260902222515 30 92 3.2 4.8 0.00 0.00 0.00 30 1020.8
20260902221515 30 101 3.2 4.8 0.00 0.00 0.00 29 1021.0
20260902220516 30 87 1.6 4.8 0.00 0.00 0.00 31 1021.1
20260902215516 30 88 1.6 6.4 0.00 0.00 0.00 32 1021.3
20260902214516 30 88 3.2 4.8 0.00 0.00 0.00 31 1021.5
20260902213617 30 87 3.2 6.4 0.00 0.00 0.00 30 1021.7
20260902212517 30 99 1.6 6.4 0.00 0.00 0.00 30 1021.8
20260902211515 30 99 1.6 4.8 0.00 0.00 0.00 31 1022.0
20260902210535 30 86 1.6 6.4 0.00 0.00 0.00 30 1022.1
20260902205516 31 95 1.6 4.8 0.00 0.00 0.00 29 1022.2
20260902204516 30 92 0.0 3.2 0.00 0.00 0.00 30 1022.4
20260902203536 31 91 1.6 3.2 0.00 0.00 0.00 29 1022.4
20260902202517 30 102 1.6 3.2 0.00 0.00 0.00 30 1022.5
20260902201517 31 91 1.6 3.2 0.00 0.00 0.00 29 1022.7
20260902200515 30 268 0.0 1.6 0.00 0.00 0.00 30 1022.8
20260902195515 30 92 1.6 3.2 0.00 0.00 0.00 30 1022.9
20260902194515 30 95 0.0 3.2 0.00 0.00 0.00 30 1023.0
20260902193516 30 159 0.0 3.2 0.00 0.00 0.00 30 1023.0
20260902192516 30 100 0.0 3.2 0.00 0.00 0.00 31 1023.1
20260902191517 29 294 0.0 3.2 0.00 0.00 0.00 30 1023.4
20260902190517 30 90 0.0 1.6 0.00 0.00 0.00 31 1023.5
20260902185515 30 301 1.6 6.4 0.00 0.00 0.00 32 1023.7
20260902184515 29 280 0.0 3.2 0.00 0.00 0.00 33 1023.8
20260902183516 28 114 0.0 3.2 0.00 0.00 0.00 32 1024.0
20260902182516 28 330 0.0 1.6 0.00 0.00 0.00 33 1024.1
20260902181556 27 2 0.0 3.2 0.00 0.00 0.00 34 1024.4
20260902180517 27 115 0.0 3.2 0.00 0.00 0.00 35 1024.5
20260902175557 27 102 1.6 3.2 0.00 0.00 0.00 35 1024.6
20260902174015 27 296 0.0 1.6 0.00 0.00 0.00 37 1024.8
20260902173016 26 334 0.0 1.6 0.00 0.00 0.00 37 1024.9
20260902172016 26 99 0.0 1.6 0.00 0.00 0.00 38 1024.9
20260902171016 26 255 0.0 3.2 0.00 0.00 0.00 39 1025.0
20260902170016 25 93 1.6 4.8 0.00 0.00 0.00 39 1025.1
20260902165017 25 93 0.0 3.2 0.00 0.00 0.00 41 1025.1
20260902164015 25 94 0.0 1.6 0.00 0.00 0.00 41 1025.1
20260902163015 25 267 0.0 3.2 0.00 0.00 0.00 42 1025.1
20260902162015 24 279 0.0 1.6 0.00 0.00 0.00 42 1025.2
20260902161016 23 0.0 0.0 0.00 0.00 0.00 44 1025.1
20260902160016 23 0.0 0.0 0.00 0.00 0.00 46 1025.2
20260902155017 23 129 0.0 1.6 0.00 0.00 0.00 45 1025.3
20260902154017 22 133 0.0 1.6 0.00 0.00 0.00 45 1025.5
20260902153015 21 132 0.0 1.6 0.00 0.00 0.00 48 1025.6
20260902152016 21 133 0.0 1.6 0.00 0.00 0.00 51 1025.5
20260902151016 20 133 0.0 1.6 0.00 0.00 0.00 54 1025.6
20260902150016 20 133 0.0 1.6 0.00 0.00 0.00 54 1025.6
20260902145016 20 133 0.0 1.6 0.00 0.00 0.00 55 1025.5
20260902144017 19 0.0 0.0 0.00 0.00 0.00 58 1025.6
20260902143015 18 0.0 0.0 0.00 0.00 0.00 55 1025.4
20260902142015 18 0.0 0.0 0.00 0.00 0.00 58 1025.2
20260902141015 17 0.0 0.0 0.00 0.00 0.00 59 1025.2
20260902140036 17 0.0 0.0 0.00 0.00 0.00 62 1025.2
20260902135016 16 0.0 0.0 0.00 0.00 0.00 65 1025.2
20260902134017 16 0.0 0.0 0.00 0.00 0.00 66 1025.3
20260902133017 15 139 0.0 1.6 0.00 0.00 0.00 67 1025.2
20260902132015 15 0.0 0.0 0.00 0.00 0.00 68 1025.1
20260902131035 15 0.0 0.0 0.00 0.00 0.00 69 1025.0
20260902130015 14 0.0 0.0 0.00 0.00 0.00 69 1024.8
20260902125016 15 139 0.0 1.6 0.00 0.00 0.00 69 1024.7
20260902124016 15 0.0 0.0 0.00 0.00 0.00 68 1024.7
20260902123017 15 0.0 0.0 0.00 0.00 0.00 67 1024.5
20260902122017 15 0.0 0.0 0.00 0.00 0.00 67 1024.5
20260902121015 15 0.0 0.0 0.00 0.00 0.00 66 1024.4
20260902120015 15 139 0.0 1.6 0.00 0.00 0.00 67 1024.4
20260902115035 16 0.0 0.0 0.00 0.00 0.00 68 1024.3
20260902114016 16 139 0.0 1.6 0.00 0.00 0.00 65 1024.1
20260902113016 16 139 0.0 1.6 0.00 0.00 0.00 65 1024.1
20260902112017 16 140 0.0 3.2 0.00 0.00 0.00 65 1024.1
20260902111017 16 140 0.0 1.6 0.00 0.00 0.00 64 1024.0
20260902110015 16 141 1.6 3.2 0.00 0.00 0.00 64 1024.0
20260902105015 16 143 0.0 3.2 0.00 0.00 0.00 65 1024.0
20260902104036 15 139 1.6 4.8 0.00 0.00 0.00 67 1024.0
20260902103016 15 0.0 0.0 0.00 0.00 0.00 68 1023.9
20260902102017 15 0.0 0.0 0.00 0.00 0.00 67 1023.9
20260902101017 16 0.0 0.0 0.00 0.00 0.00 66 1024.0
20260902100014 16 0.0 0.0 0.00 0.00 0.00 66 1024.0
20260902095015 15 0.0 0.0 0.00 0.00 0.00 68 1024.1
20260902094015 15 0.0 0.0 0.00 0.00 0.00 69 1024.1
20260902093036 16 0.0 0.0 0.00 0.00 0.00 68 1024.0
20260902092016 16 0.0 0.0 0.00 0.00 0.00 68 1024.0
20260902091016 16 0.0 0.0 0.00 0.00 0.00 66 1024.0
20260902090017 17 0.0 0.0 0.00 0.00 0.00 65 1024.0
20260902085015 17 0.0 0.0 0.00 0.00 0.00 64 1023.9
20260902084015 17 0.0 0.0 0.00 0.00 0.00 63 1024.0
20260902083016 17 154 0.0 1.6 0.00 0.00 0.00 62 1024.0
20260902082016 18 136 0.0 3.2 0.00 0.00 0.00 62 1024.0
20260902081016 17 133 1.6 3.2 0.00 0.00 0.00 62 1024.1
20260902080037 17 133 1.6 4.8 0.00 0.00 0.00 61 1024.1
20260902075037 18 133 0.0 1.6 0.00 0.00 0.00 60 1024.2
20260902074015 18 133 0.0 3.2 0.00 0.00 0.00 59 1024.2
20260902073015 17 133 1.6 3.2 0.00 0.00 0.00 59 1024.1
20260902072015 18 133 0.0 1.6 0.00 0.00 0.00 59 1024.1
20260902071016 18 133 0.0 1.6 0.00 0.00 0.00 59 1024.0
20260902070036 18 133 0.0 1.6 0.00 0.00 0.00 60 1024.1
20260902065017 18 133 0.0 1.6 0.00 0.00 0.00 61 1024.1
20260902064017 18 133 0.0 1.6 0.00 0.00 0.00 60 1024.1
20260902063035 18 133 0.0 1.6 0.00 0.00 0.00 59 1024.1
20260902062015 18 127 0.0 1.6 0.00 0.00 0.00 59 1024.0
20260902061016 18 139 0.0 1.6 0.00 0.00 0.00 61 1024.0
20260902060016 19 139 0.0 3.2 0.00 0.00 0.00 63 1024.0
20260902055016 19 140 0.0 3.2 0.00 0.00 0.00 63 1023.9
20260902054037 20 139 0.0 3.2 0.00 0.00 0.00 62 1023.9
20260902053017 20 135 1.6 4.8 0.00 0.00 0.00 61 1023.9
20260902052015 20 141 3.2 6.4 0.00 0.00 0.00 60 1023.9
20260902051015 20 140 1.6 6.4 0.00 0.00 0.00 59 1023.9
20260902050016 20 146 1.6 8.0 0.00 0.00 0.00 58 1023.9
20260902045016 20 137 3.2 6.4 0.00 0.00 0.00 57 1023.9
20260902044016 20 141 3.2 6.4 0.00 0.00 0.00 56 1024.0
20260902043017 20 135 1.6 6.4 0.00 0.00 0.00 56 1024.1